Simultaneous Nadir Overpasses (SNOs) Predictions

Prediction of SNOs between GOES-16 and NOAA-19 Satellite Orbit:

Table of predicted SNOs for the next 14.0 days since TLE Epoch: 8/10/2024
Index Date Time (GOES-16) GOES-16 Lat,Lon NOAA-19 Lat,Lon Distance(km) Time Diff (sec)
1 08/11/2024 02:32:09 0.02, -75.21 -0.59, -77.86 302.80 80
2 08/12/2024 02:22:29 0.02, -75.21 0.13, -74.87 40.00 80
3 08/13/2024 02:10:09 0.02, -75.21 0.78, -71.86 382.67 80
4 08/14/2024 14:39:02 -0.02, -75.23 0.92, -79.44 480.43 80
5 08/15/2024 14:26:41 -0.02, -75.23 0.24, -76.44 137.48 80
6 08/16/2024 14:17:01 -0.02, -75.24 -0.44, -73.44 205.50 80
7 08/19/2024 02:36:30 0.03, -75.25 -0.65, -78.08 322.57 80
8 08/20/2024 02:21:29 0.02, -75.27 0.04, -75.08 21.20 80
9 08/21/2024 02:09:09 0.02, -75.28 0.74, -72.08 364.82 80
10 08/22/2024 14:43:20 -0.02, -75.30 0.98, -79.65 495.89 80
11 08/23/2024 14:28:20 -0.02, -75.32 0.28, -76.65 151.64 80
